VTK503 UNNT-UNBG

Flight info

Callsign VTK503
Flight time 0h 43m
Altitude 35000
Route ALIRO1K ALIRO G833 KUDEB KUDEB1F
Aircraft A319/M-SDE3FGHIRWY/LB1

Departure

Time 2026-05-01 11:25
Airport Novosibirsk Tolmachevo Airport (UNNT)

Arrival

Time 2026-05-01 12:08
Airport Gorno-Altaysk Airport (UNBG)
Time Latitude Longitude Altitude Speed Heading
2026-05-01 11:06 55.01030 82.66755 373 ft 0 kts 172°
2026-05-01 11:18 55.01041 82.66751 373 ft 2 kts 169°
2026-05-01 11:18 55.01058 82.66746 373 ft 2 kts 168°
2026-05-01 11:18 55.01074 82.66740 373 ft 2 kts 162°
2026-05-01 11:18 55.01089 82.66729 373 ft 2 kts 131°
2026-05-01 11:19 55.01094 82.66707 373 ft 1 kts 84°
2026-05-01 11:19 55.01094 82.66704 373 ft 0 kts 88°
2026-05-01 11:20 55.01094 82.66705 373 ft 0 kts 88°
2026-05-01 11:20 55.01095 82.66717 373 ft 2 kts 85°
2026-05-01 11:20 55.01101 82.66782 373 ft 10 kts 83°
2026-05-01 11:21 55.01089 82.66973 373 ft 13 kts 92°
2026-05-01 11:21 55.01091 82.67074 373 ft 13 kts 83°
2026-05-01 11:21 55.01104 82.67230 373 ft 13 kts 82°
2026-05-01 11:21 55.01111 82.67400 373 ft 15 kts 84°
2026-05-01 11:22 55.01180 82.67523 373 ft 15 kts 30°
2026-05-01 11:22 55.01275 82.67619 373 ft 16 kts 31°
2026-05-01 11:22 55.01359 82.67708 373 ft 7 kts 31°
2026-05-01 11:22 55.01393 82.67745 372 ft 6 kts 32°
2026-05-01 11:23 55.01438 82.67785 372 ft 8 kts 16°
2026-05-01 11:23 55.01484 82.67734 372 ft 9 kts 289°
2026-05-01 11:23 55.01481 82.67670 372 ft 0 kts 260°
2026-05-01 11:23 55.01480 82.67662 372 ft 1 kts 260°
2026-05-01 11:24 55.01477 82.67626 371 ft 7 kts 260°
2026-05-01 11:24 55.01430 82.67155 374 ft 80 kts 260°
2026-05-01 11:24 55.01171 82.63933 910 ft 154 kts 259°
2026-05-01 11:25 55.01004 82.62071 1621 ft 158 kts 258°
2026-05-01 11:25 55.00603 82.57841 2510 ft 200 kts 258°
2026-05-01 11:25 55.00368 82.55310 3019 ft 220 kts 258°
2026-05-01 11:26 55.00269 82.52581 3702 ft 239 kts 276°
2026-05-01 11:26 55.01552 82.46806 5355 ft 265 kts 296°
2026-05-01 11:26 55.02407 82.43943 6399 ft 268 kts 296°
2026-05-01 11:27 55.03274 82.41000 7422 ft 270 kts 295°
2026-05-01 11:27 55.03948 82.37901 8237 ft 280 kts 278°
2026-05-01 11:27 55.03889 82.34514 9153 ft 282 kts 253°
2026-05-01 11:27 55.03011 82.31486 10171 ft 283 kts 229°
2026-05-01 11:28 55.01445 82.29361 10855 ft 298 kts 205°
2026-05-01 11:28 54.99338 82.28710 11324 ft 320 kts 180°
2026-05-01 11:28 54.97083 82.28836 12123 ft 327 kts 180°
2026-05-01 11:29 54.92475 82.28996 13876 ft 335 kts 182°
2026-05-01 11:29 54.90131 82.29038 14655 ft 338 kts 182°
2026-05-01 11:29 54.85372 82.29102 16188 ft 346 kts 182°
2026-05-01 11:30 54.82949 82.29138 16935 ft 350 kts 182°
2026-05-01 11:30 54.80507 82.29179 17683 ft 354 kts 182°
2026-05-01 11:30 54.78034 82.29229 18410 ft 358 kts 182°
2026-05-01 11:30 54.75524 82.29285 19045 ft 362 kts 182°
2026-05-01 11:31 54.72997 82.29342 19688 ft 366 kts 182°
2026-05-01 11:31 54.70441 82.29399 20318 ft 370 kts 182°
2026-05-01 11:31 54.67854 82.29454 20952 ft 374 kts 182°
2026-05-01 11:31 54.65238 82.29509 21582 ft 378 kts 182°
2026-05-01 11:32 54.62595 82.29565 22211 ft 382 kts 182°
2026-05-01 11:32 54.59924 82.29624 22828 ft 386 kts 181°
2026-05-01 11:32 54.57220 82.29682 23444 ft 390 kts 181°
2026-05-01 11:32 54.54453 82.29738 23964 ft 394 kts 181°
2026-05-01 11:33 54.51699 82.29794 24475 ft 397 kts 181°
2026-05-01 11:33 54.48924 82.29846 24991 ft 400 kts 182°
2026-05-01 11:33 54.46134 82.29896 25494 ft 403 kts 182°
2026-05-01 11:33 54.43324 82.29951 25990 ft 405 kts 181°
2026-05-01 11:34 54.40500 82.30008 26482 ft 408 kts 182°
2026-05-01 11:34 54.37652 82.30065 26976 ft 410 kts 182°
2026-05-01 11:34 54.34791 82.30125 27447 ft 413 kts 182°
2026-05-01 11:34 54.31912 82.30184 27930 ft 415 kts 182°
2026-05-01 11:35 54.29016 82.30239 28412 ft 418 kts 182°
2026-05-01 11:35 54.26102 82.30297 28878 ft 420 kts 182°
2026-05-01 11:35 54.23173 82.30358 29331 ft 423 kts 182°
2026-05-01 11:35 54.20221 82.30418 29779 ft 426 kts 182°
2026-05-01 11:36 54.17250 82.30477 30190 ft 428 kts 182°
2026-05-01 11:36 54.14223 82.30532 30568 ft 431 kts 182°
2026-05-01 11:36 54.11258 82.30587 30931 ft 433 kts 181°
2026-05-01 11:36 54.08197 82.30965 31281 ft 438 kts 173°
2026-05-01 11:37 54.05237 82.32254 31625 ft 444 kts 162°
2026-05-01 11:37 54.02381 82.34528 31974 ft 450 kts 151°
2026-05-01 11:37 53.99837 82.37676 32298 ft 456 kts 140°
2026-05-01 11:37 53.97637 82.41583 32701 ft 459 kts 133°
2026-05-01 11:38 53.95515 82.45627 33196 ft 457 kts 134°
2026-05-01 11:38 53.93389 82.49629 33677 ft 456 kts 134°
2026-05-01 11:38 53.91258 82.53606 34133 ft 455 kts 134°
2026-05-01 11:38 53.89127 82.57568 34554 ft 454 kts 134°
2026-05-01 11:39 53.86997 82.61519 34902 ft 455 kts 134°
2026-05-01 11:39 53.82775 82.69347 35014 ft 444 kts 134°
2026-05-01 11:40 53.78638 82.77033 35012 ft 440 kts 134°
2026-05-01 11:40 53.74509 82.84680 35015 ft 440 kts 134°
2026-05-01 11:41 53.70378 82.92308 35018 ft 440 kts 134°
2026-05-01 11:41 53.66244 82.99917 35019 ft 440 kts 134°
2026-05-01 11:42 53.62110 83.07511 35017 ft 440 kts 134°
2026-05-01 11:42 53.57932 83.15147 35018 ft 440 kts 134°
2026-05-01 11:43 53.53784 83.22703 35021 ft 440 kts 134°
2026-05-01 11:43 53.49628 83.30254 35020 ft 440 kts 134°
2026-05-01 11:44 53.43383 83.41537 35017 ft 440 kts 134°
2026-05-01 11:44 53.39206 83.49052 35019 ft 440 kts 134°
2026-05-01 11:45 53.35073 83.56608 35017 ft 440 kts 131°
2026-05-01 11:45 53.31242 83.64612 35021 ft 441 kts 128°
2026-05-01 11:46 53.27532 83.72851 35027 ft 441 kts 128°
2026-05-01 11:46 53.23787 83.80953 35033 ft 441 kts 129°
2026-05-01 11:47 53.19967 83.88959 35034 ft 441 kts 129°
2026-05-01 11:47 53.16135 83.96930 34757 ft 440 kts 129°
2026-05-01 11:48 53.14231 84.00902 34232 ft 438 kts 129°
2026-05-01 11:48 53.12336 84.04855 33588 ft 436 kts 129°
2026-05-01 11:48 53.10451 84.08783 32996 ft 433 kts 129°
2026-05-01 11:48 53.08578 84.12687 32387 ft 430 kts 130°
2026-05-01 11:49 53.06718 84.16567 31806 ft 428 kts 130°
2026-05-01 11:49 53.05493 84.19123 31425 ft 426 kts 130°
2026-05-01 11:49 53.03651 84.22962 30852 ft 424 kts 130°
2026-05-01 11:49 53.01791 84.26824 30276 ft 422 kts 130°
2026-05-01 11:50 52.99959 84.30616 29655 ft 419 kts 130°
2026-05-01 11:50 52.98142 84.34369 29104 ft 415 kts 130°
2026-05-01 11:50 52.95761 84.39275 28374 ft 410 kts 130°
2026-05-01 11:50 52.94556 84.41752 28010 ft 408 kts 130°
2026-05-01 11:51 52.92781 84.45402 27476 ft 405 kts 130°
2026-05-01 11:51 52.91020 84.49013 26963 ft 402 kts 130°
2026-05-01 11:51 52.89264 84.52610 26438 ft 400 kts 130°
2026-05-01 11:51 52.87517 84.56182 25946 ft 398 kts 130°
2026-05-01 11:52 52.85779 84.59728 25458 ft 396 kts 130°
2026-05-01 11:52 52.84046 84.63264 24975 ft 395 kts 130°
2026-05-01 11:52 52.82323 84.66775 24501 ft 392 kts 130°
2026-05-01 11:52 52.80606 84.70274 24018 ft 391 kts 130°
2026-05-01 11:53 52.78899 84.73747 23531 ft 389 kts 130°
2026-05-01 11:53 52.77195 84.77213 22999 ft 386 kts 130°
2026-05-01 11:53 52.75509 84.80643 22514 ft 383 kts 130°
2026-05-01 11:53 52.73837 84.84034 22034 ft 380 kts 130°
2026-05-01 11:54 52.72171 84.87399 21542 ft 377 kts 131°
2026-05-01 11:54 52.70520 84.90728 21055 ft 374 kts 131°
2026-05-01 11:54 52.68878 84.94037 20566 ft 372 kts 131°
2026-05-01 11:54 52.67240 84.97331 20079 ft 370 kts 131°
2026-05-01 11:55 52.65611 85.00596 19587 ft 368 kts 131°
2026-05-01 11:55 52.63988 85.03849 19093 ft 367 kts 131°
2026-05-01 11:55 52.62352 85.07134 18603 ft 366 kts 131°
2026-05-01 11:55 52.60743 85.10369 18083 ft 364 kts 131°
2026-05-01 11:56 52.59142 85.13586 17592 ft 362 kts 131°
2026-05-01 11:56 52.57554 85.16767 17117 ft 359 kts 131°
2026-05-01 11:56 52.55971 85.19921 16648 ft 356 kts 131°
2026-05-01 11:56 52.54402 85.23044 16186 ft 354 kts 131°
2026-05-01 11:57 52.52841 85.26154 15730 ft 352 kts 131°
2026-05-01 11:57 52.51287 85.29252 15275 ft 350 kts 131°
2026-05-01 11:57 52.49741 85.32329 14811 ft 349 kts 131°
2026-05-01 11:57 52.48197 85.35398 14365 ft 348 kts 131°
2026-05-01 11:58 52.46644 85.38430 13906 ft 346 kts 134°
2026-05-01 11:58 52.44957 85.41227 13430 ft 344 kts 136°
2026-05-01 11:58 52.41619 85.46747 12515 ft 338 kts 136°
2026-05-01 11:59 52.39974 85.49471 12065 ft 335 kts 136°
2026-05-01 11:59 52.38343 85.52167 11614 ft 333 kts 136°
2026-05-01 11:59 52.36716 85.54852 11173 ft 330 kts 136°
2026-05-01 12:00 52.33513 85.60130 10735 ft 326 kts 136°
2026-05-01 12:00 52.31920 85.62747 10292 ft 322 kts 136°
2026-05-01 12:00 52.28887 85.67731 9460 ft 299 kts 136°
2026-05-01 12:01 52.27402 85.70169 9026 ft 298 kts 136°
2026-05-01 12:01 52.25942 85.72559 8638 ft 296 kts 136°
2026-05-01 12:01 52.24495 85.74923 8246 ft 293 kts 136°
2026-05-01 12:01 52.23058 85.77271 7838 ft 291 kts 136°
2026-05-01 12:02 52.21631 85.79599 7425 ft 290 kts 136°
2026-05-01 12:02 52.20218 85.81918 6936 ft 285 kts 133°
2026-05-01 12:02 52.19087 85.84571 6209 ft 287 kts 117°
2026-05-01 12:02 52.18240 85.87504 5564 ft 283 kts 115°
2026-05-01 12:03 52.17426 85.90310 5338 ft 264 kts 115°
2026-05-01 12:03 52.16674 85.92898 5203 ft 242 kts 115°
2026-05-01 12:03 52.15939 85.95237 5089 ft 223 kts 125°
2026-05-01 12:03 52.14745 85.96583 4985 ft 204 kts 168°
2026-05-01 12:04 52.13363 85.96333 4705 ft 206 kts 202°
2026-05-01 12:04 52.12059 85.95319 4354 ft 205 kts 204°
2026-05-01 12:04 52.10819 85.94341 4016 ft 192 kts 203°
2026-05-01 12:04 52.09646 85.93431 3743 ft 182 kts 202°
2026-05-01 12:05 52.08533 85.92572 3494 ft 172 kts 202°
2026-05-01 12:05 52.06495 85.91001 3023 ft 150 kts 202°
2026-05-01 12:05 52.05578 85.90296 2809 ft 143 kts 202°
2026-05-01 12:06 52.04694 85.89617 2608 ft 139 kts 202°
2026-05-01 12:06 52.03826 85.88951 2407 ft 137 kts 202°
2026-05-01 12:06 52.02963 85.88288 2211 ft 138 kts 202°
2026-05-01 12:06 52.02088 85.87616 2011 ft 140 kts 202°
2026-05-01 12:07 52.01202 85.86937 1827 ft 141 kts 201°
2026-05-01 12:07 52.00323 85.86254 1592 ft 139 kts 202°
2026-05-01 12:07 51.99442 85.85572 1342 ft 138 kts 202°
2026-05-01 12:07 51.98582 85.84915 1137 ft 137 kts 202°
2026-05-01 12:08 51.97721 85.84261 1041 ft 136 kts 202°
2026-05-01 12:08 51.96872 85.83613 966 ft 127 kts 204°
2026-05-01 12:08 51.96288 85.83180 964 ft 52 kts 206°
2026-05-01 12:08 51.96056 85.82984 964 ft 20 kts 220°
2026-05-01 12:09 51.96016 85.82962 963 ft 5 kts 31°
2026-05-01 12:09 51.96077 85.83011 965 ft 15 kts 25°
2026-05-01 12:09 51.96186 85.83093 964 ft 18 kts 25°
2026-05-01 12:09 51.96307 85.83187 961 ft 22 kts 25°
2026-05-01 12:10 51.96452 85.83295 957 ft 24 kts 24°
2026-05-01 12:10 51.96751 85.83526 964 ft 21 kts 26°
2026-05-01 12:10 51.96792 85.83670 962 ft 14 kts 88°
2026-05-01 12:11 51.96780 85.83900 965 ft 9 kts 116°
2026-05-01 12:11 51.96779 85.83990 963 ft 9 kts 38°
2026-05-01 12:11 51.96840 85.84039 964 ft 11 kts 26°
2026-05-01 12:12 51.96886 85.84025 964 ft 2 kts 286°
2026-05-01 12:12 51.96889 85.84019 963 ft 1 kts 297°
2026-05-01 12:12 51.96890 85.84014 963 ft 0 kts 297°